This demonstration page uses our WeatherBlox Daily Observations layout. Learn more.

Left ArrowRight Arrow

36.19886, -115.1175

Hourly Observations for November 3, 2021

Temp ( °F °C ) Dew Point ( °F °C ) Humidity (%) Winds ( mph kmh ) Pressure ( in mb ) Visibility ( mi km ) Precip ( " mm )
12:53 am 00:53 Clear 64 17.8 32 0 30 30 NW 9 15 30.14 1021 10 16 0.00 0.00
1:53 am 01:53 Clear 61 16.1 33 0.6 35 35 ESE 3 6 30.15 1021 10 16 0.00 0.00
2:53 am 02:53 Clear 60 15.6 33 0.6 36 36 WNW 7 11 30.15 1021 10 16 0.00 0.00
3:53 am 03:53 Clear 59 15 34 1.1 39 39 Calm 30.14 1021 10 16 0.00 0.00
4:53 am 04:53 Clear 57 13.9 33 0.6 41 41 W 6 9 30.14 1021 10 16 0.00 0.00
5:53 am 05:53 Clear 56 13.3 33 0.6 42 42 Calm 30.15 1021 10 16 0.00 0.00
6:53 am 06:53 Clear 56 13.3 34 1.1 44 44 Calm 30.16 1022 10 16 0.00 0.00
7:53 am 07:53 Sunny 60 15.6 33 0.6 36 36 WNW 3 6 30.19 1022 10 16 0.00 0.00
8:53 am 08:53 Sunny 66 18.9 32 0 28 28 NW 5 7 30.20 1023 10 16 0.00 0.00
9:53 am 09:53 Sunny 69 20.6 33 0.6 26 26 Calm 30.20 1023 10 16 0.00 0.00
10:53 am 10:53 Sunny 73 22.8 34 1.1 24 24 Calm 30.21 1023 10 16 0.00 0.00
11:53 am 11:53 Sunny 76 24.4 34 1.1 22 22 undefined N/A 30.19 1022 N/A 0.00 0.00
12:53 pm 12:53 Sunny 78 25.6 35 1.7 21 21 ENE 7 11 30.14 1021 10 16 0.00 0.00
1:53 pm 13:53 Sunny 77 25 37 2.8 24 24 Calm 30.12 1020 10 16 0.00 0.00
2:53 pm 14:53 Sunny 78 25.6 37 2.8 23 23 SSW 3 6 30.10 1019 10 16 0.00 0.00
3:53 pm 15:53 Sunny 79 26.1 37 2.8 22 22 VRB 3 6 30.09 1019 10 16 0.00 0.00
4:53 pm 16:53 Sunny 79 26.1 36 2.2 21 21 Calm 30.08 1019 10 16 0.00 0.00
5:53 pm 17:53 Clear 76 24.4 35 1.7 23 23 E 6 9 30.07 1018 10 16 0.00 0.00
6:53 pm 18:53 Clear 74 23.3 35 1.7 24 24 E 5 7 30.09 1019 10 16 0.00 0.00
7:53 pm 19:53 Clear 72 22.2 35 1.7 26 26 Calm 30.09 1019 10 16 0.00 0.00
8:53 pm 20:53 Clear 67 19.4 36 2.2 32 32 W 6 9 30.09 1019 10 16 0.00 0.00
9:53 pm 21:53 Clear 66 18.9 38 3.3 36 36 WNW 6 9 30.10 1019 10 16 0.00 0.00
10:53 pm 22:53 Clear 64 17.8 37 2.8 37 37 NNW 7 11 30.09 1019 10 16 0.00 0.00
11:53 pm 23:53 Clear 63 17.2 36 2.2 37 37 NW 3 6 30.09 1019 10 16 0.00 0.00

Powered by AerisWeather